owner,sensor,date,latitude,longitude,vertical_datum,mass_concentration_of_oxygen_in_sea_water,qcFlag 
SCCF RECON,ioos:station:SCCF:56:1,2015-11-01T00:00:00Z,26.4645,-82.1044,1.0,7.17,1111122 
SCCF RECON,ioos:station:SCCF:56:1,2015-11-01T01:00:00Z,26.4645,-82.1044,1.0,6.79,1111122 
SCCF RECON,ioos:station:SCCF:56:1,2015-11-01T02:00:00Z,26.4645,-82.1044,1.0,5.92,1111122 
SCCF RECON,ioos:station:SCCF:56:1,2015-11-01T03:00:00Z,26.4645,-82.1044,1.0,6.13,1111122 
SCCF RECON,ioos:station:SCCF:56:1,2015-11-01T04:00:00Z,26.4645,-82.1044,1.0,5.46,1111122 
SCCF RECON,ioos:station:SCCF:56:1,2015-11-01T05:00:00Z,26.4645,-82.1044,1.0,5.86,1111122 
SCCF RECON,ioos:station:SCCF:56:1,2015-11-01T06:00:00Z,26.4645,-82.1044,1.0,5.19,1111122 
SCCF RECON,ioos:station:SCCF:56:1,2015-11-01T07:00:00Z,26.4645,-82.1044,1.0,5.16,1111122 
SCCF RECON,ioos:station:SCCF:56:1,2015-11-01T08:00:00Z,26.4645,-82.1044,1.0,5.22,1111122 
SCCF RECON,ioos:station:SCCF:56:1,2015-11-01T09:00:00Z,26.4645,-82.1044,1.0,5.41,1111122 
SCCF RECON,ioos:station:SCCF:56:1,2015-11-01T10:00:00Z,26.4645,-82.1044,1.0,4.73,1111122 
SCCF RECON,ioos:station:SCCF:56:1,2015-11-01T11:00:00Z,26.4645,-82.1044,1.0,4.53,1111122 
SCCF RECON,ioos:station:SCCF:56:1,2015-11-01T12:00:00Z,26.4645,-82.1044,1.0,4.2,1111122 
SCCF RECON,ioos:station:SCCF:56:1,2015-11-01T13:00:00Z,26.4645,-82.1044,1.0,3.66,1111122 
SCCF RECON,ioos:station:SCCF:56:1,2015-11-01T14:00:00Z,26.4645,-82.1044,1.0,3.26,1111122 
SCCF RECON,ioos:station:SCCF:56:1,2015-11-01T15:00:00Z,26.4645,-82.1044,1.0,3.29,1111122 
SCCF RECON,ioos:station:SCCF:56:1,2015-11-01T16:00:00Z,26.4645,-82.1044,1.0,3.7,1111122 
SCCF RECON,ioos:station:SCCF:56:1,2015-11-01T17:00:00Z,26.4645,-82.1044,1.0,3.95,1111122 
SCCF RECON,ioos:station:SCCF:56:1,2015-11-01T18:00:00Z,26.4645,-82.1044,1.0,6.18,1111122 
SCCF RECON,ioos:station:SCCF:56:1,2015-11-01T19:00:00Z,26.4645,-82.1044,1.0,7.18,1111122 
SCCF RECON,ioos:station:SCCF:56:1,2015-11-01T20:00:00Z,26.4645,-82.1044,1.0,7.54,1111122 
SCCF RECON,ioos:station:SCCF:56:1,2015-11-01T21:00:00Z,26.4645,-82.1044,1.0,7.26,1111122 
SCCF RECON,ioos:station:SCCF:56:1,2015-11-01T22:00:00Z,26.4645,-82.1044,1.0,6.63,1111122 
SCCF RECON,ioos:station:SCCF:56:1,2015-11-01T23:00:00Z,26.4645,-82.1044,1.0,5.99,1111122 
SCCF RECON,ioos:station:SCCF:56:1,2015-11-02T00:00:00Z,26.4645,-82.1044,1.0,6.07,1111122 
SCCF RECON,ioos:station:SCCF:56:1,2015-11-02T01:00:00Z,26.4645,-82.1044,1.0,6.05,1111122 
SCCF RECON,ioos:station:SCCF:56:1,2015-11-02T02:00:00Z,26.4645,-82.1044,1.0,5.92,1111122 
SCCF RECON,ioos:station:SCCF:56:1,2015-11-02T03:00:00Z,26.4645,-82.1044,1.0,5.1,1111122 
SCCF RECON,ioos:station:SCCF:56:1,2015-11-02T04:00:00Z,26.4645,-82.1044,1.0,5.56,1111122 
SCCF RECON,ioos:station:SCCF:56:1,2015-11-02T05:00:00Z,26.4645,-82.1044,1.0,4.79,1111122 
SCCF RECON,ioos:station:SCCF:56:1,2015-11-02T06:00:00Z,26.4645,-82.1044,1.0,4.11,1111122 
SCCF RECON,ioos:station:SCCF:56:1,2015-11-02T07:00:00Z,26.4645,-82.1044,1.0,4.2,1111122 
SCCF RECON,ioos:station:SCCF:56:1,2015-11-02T08:00:00Z,26.4645,-82.1044,1.0,3.84,1111122 
SCCF RECON,ioos:station:SCCF:56:1,2015-11-02T09:00:00Z,26.4645,-82.1044,1.0,4.44,1111122 
SCCF RECON,ioos:station:SCCF:56:1,2015-11-02T10:00:00Z,26.4645,-82.1044,1.0,4.29,1111122 
SCCF RECON,ioos:station:SCCF:56:1,2015-11-02T11:00:00Z,26.4645,-82.1044,1.0,4.35,1111122 
SCCF RECON,ioos:station:SCCF:56:1,2015-11-02T12:00:00Z,26.4645,-82.1044,1.0,3.69,1111122 
SCCF RECON,ioos:station:SCCF:56:1,2015-11-02T13:00:00Z,26.4645,-82.1044,1.0,3.63,1111122 
SCCF RECON,ioos:station:SCCF:56:1,2015-11-02T14:00:00Z,26.4645,-82.1044,1.0,3.27,1111122 
SCCF RECON,ioos:station:SCCF:56:1,2015-11-02T15:00:00Z,26.4645,-82.1044,1.0,3.09,1111122 
SCCF RECON,ioos:station:SCCF:56:1,2015-11-02T16:00:00Z,26.4645,-82.1044,1.0,3.21,1111122 
SCCF RECON,ioos:station:SCCF:56:1,2015-11-02T17:00:00Z,26.4645,-82.1044,1.0,3.66,1111122 
SCCF RECON,ioos:station:SCCF:56:1,2015-11-02T18:00:00Z,26.4645,-82.1044,1.0,3.91,1111122 
SCCF RECON,ioos:station:SCCF:56:1,2015-11-02T19:00:00Z,26.4645,-82.1044,1.0,6.57,1111122 
SCCF RECON,ioos:station:SCCF:56:1,2015-11-02T20:00:00Z,26.4645,-82.1044,1.0,7.13,1111122 
SCCF RECON,ioos:station:SCCF:56:1,2015-11-02T21:00:00Z,26.4645,-82.1044,1.0,7.26,1111122 
SCCF RECON,ioos:station:SCCF:56:1,2015-11-02T22:00:00Z,26.4645,-82.1044,1.0,6.66,1111122 
SCCF RECON,ioos:station:SCCF:56:1,2015-11-02T23:00:00Z,26.4645,-82.1044,1.0,6.04,1111122 
SCCF RECON,ioos:station:SCCF:56:1,2015-11-03T00:00:00Z,26.4645,-82.1044,1.0,5.61,1111122 
SCCF RECON,ioos:station:SCCF:56:1,2015-11-03T01:00:00Z,26.4645,-82.1044,1.0,5.23,1111122 
SCCF RECON,ioos:station:SCCF:56:1,2015-11-03T02:00:00Z,26.4645,-82.1044,1.0,5.31,1111122 
SCCF RECON,ioos:station:SCCF:56:1,2015-11-03T03:00:00Z,26.4645,-82.1044,1.0,5.42,1111122 
SCCF RECON,ioos:station:SCCF:56:1,2015-11-03T04:00:00Z,26.4645,-82.1044,1.0,5.41,1111122 
SCCF RECON,ioos:station:SCCF:56:1,2015-11-03T05:00:00Z,26.4645,-82.1044,1.0,5.07,1111122 
SCCF RECON,ioos:station:SCCF:56:1,2015-11-03T06:00:00Z,26.4645,-82.1044,1.0,5.51,1111122 
SCCF RECON,ioos:station:SCCF:56:1,2015-11-03T07:00:00Z,26.4645,-82.1044,1.0,4.5,1111122 
SCCF RECON,ioos:station:SCCF:56:1,2015-11-03T08:00:00Z,26.4645,-82.1044,1.0,4.23,1111122 
SCCF RECON,ioos:station:SCCF:56:1,2015-11-03T09:00:00Z,26.4645,-82.1044,1.0,4.23,1111122 
SCCF RECON,ioos:station:SCCF:56:1,2015-11-03T10:00:00Z,26.4645,-82.1044,1.0,4.06,1111122 
SCCF RECON,ioos:station:SCCF:56:1,2015-11-03T11:00:00Z,26.4645,-82.1044,1.0,4.2,1111122 
SCCF RECON,ioos:station:SCCF:56:1,2015-11-03T12:00:00Z,26.4645,-82.1044,1.0,4.17,1111122 
SCCF RECON,ioos:station:SCCF:56:1,2015-11-03T13:00:00Z,26.4645,-82.1044,1.0,3.52,1111122 
SCCF RECON,ioos:station:SCCF:56:1,2015-11-03T14:00:00Z,26.4645,-82.1044,1.0,3.62,1111122 
SCCF RECON,ioos:station:SCCF:56:1,2015-11-03T15:00:00Z,26.4645,-82.1044,1.0,3.9,1111122 
SCCF RECON,ioos:station:SCCF:56:1,2015-11-03T16:00:00Z,26.4645,-82.1044,1.0,3.16,1111122 
SCCF RECON,ioos:station:SCCF:56:1,2015-11-03T17:00:00Z,26.4645,-82.1044,1.0,3.25,1111122 
SCCF RECON,ioos:station:SCCF:56:1,2015-11-03T18:00:00Z,26.4645,-82.1044,1.0,3.65,1111122 
SCCF RECON,ioos:station:SCCF:56:1,2015-11-03T19:00:00Z,26.4645,-82.1044,1.0,3.98,1111122 
SCCF RECON,ioos:station:SCCF:56:1,2015-11-03T20:00:00Z,26.4645,-82.1044,1.0,6.32,1111122 
SCCF RECON,ioos:station:SCCF:56:1,2015-11-03T21:00:00Z,26.4645,-82.1044,1.0,6.81,1111122 
SCCF RECON,ioos:station:SCCF:56:1,2015-11-03T22:00:00Z,26.4645,-82.1044,1.0,6.34,1111122 
SCCF RECON,ioos:station:SCCF:56:1,2015-11-03T23:00:00Z,26.4645,-82.1044,1.0,6.0,1111122 
SCCF RECON,ioos:station:SCCF:56:1,2015-11-04T00:00:00Z,26.4645,-82.1044,1.0,5.69,1111122 
SCCF RECON,ioos:station:SCCF:56:1,2015-11-04T01:00:00Z,26.4645,-82.1044,1.0,5.49,1111122 
SCCF RECON,ioos:station:SCCF:56:1,2015-11-04T02:00:00Z,26.4645,-82.1044,1.0,5.26,1111122 
SCCF RECON,ioos:station:SCCF:56:1,2015-11-04T03:00:00Z,26.4645,-82.1044,1.0,5.2,1111122 
SCCF RECON,ioos:station:SCCF:56:1,2015-11-04T04:00:00Z,26.4645,-82.1044,1.0,5.27,1111122 
SCCF RECON,ioos:station:SCCF:56:1,2015-11-04T05:00:00Z,26.4645,-82.1044,1.0,5.27,1111122 
SCCF RECON,ioos:station:SCCF:56:1,2015-11-04T06:00:00Z,26.4645,-82.1044,1.0,5.02,1111122 
SCCF RECON,ioos:station:SCCF:56:1,2015-11-04T07:00:00Z,26.4645,-82.1044,1.0,4.32,1111122 
SCCF RECON,ioos:station:SCCF:56:1,2015-11-04T08:00:00Z,26.4645,-82.1044,1.0,4.04,1111122 
SCCF RECON,ioos:station:SCCF:56:1,2015-11-04T09:00:00Z,26.4645,-82.1044,1.0,3.53,1111122 
SCCF RECON,ioos:station:SCCF:56:1,2015-11-04T10:00:00Z,26.4645,-82.1044,1.0,2.81,1111122 
SCCF RECON,ioos:station:SCCF:56:1,2015-11-04T11:00:00Z,26.4645,-82.1044,1.0,2.89,1111122 
SCCF RECON,ioos:station:SCCF:56:1,2015-11-04T12:00:00Z,26.4645,-82.1044,1.0,3.56,1111122 
SCCF RECON,ioos:station:SCCF:56:1,2015-11-04T13:00:00Z,26.4645,-82.1044,1.0,3.85,1111122 
SCCF RECON,ioos:station:SCCF:56:1,2015-11-04T14:00:00Z,26.4645,-82.1044,1.0,3.91,1111122 
SCCF RECON,ioos:station:SCCF:56:1,2015-11-04T15:00:00Z,26.4645,-82.1044,1.0,3.78,1111122 
SCCF RECON,ioos:station:SCCF:56:1,2015-11-04T16:00:00Z,26.4645,-82.1044,1.0,3.8,1111122 
SCCF RECON,ioos:station:SCCF:56:1,2015-11-04T17:00:00Z,26.4645,-82.1044,1.0,3.63,1111122 
SCCF RECON,ioos:station:SCCF:56:1,2015-11-04T18:00:00Z,26.4645,-82.1044,1.0,3.72,1111122 
SCCF RECON,ioos:station:SCCF:56:1,2015-11-04T19:00:00Z,26.4645,-82.1044,1.0,3.88,1111122 
SCCF RECON,ioos:station:SCCF:56:1,2015-11-04T20:00:00Z,26.4645,-82.1044,1.0,4.55,1111122 
SCCF RECON,ioos:station:SCCF:56:1,2015-11-04T21:00:00Z,26.4645,-82.1044,1.0,5.72,1111122 
SCCF RECON,ioos:station:SCCF:56:1,2015-11-04T22:00:00Z,26.4645,-82.1044,1.0,7.83,1111122 
SCCF RECON,ioos:station:SCCF:56:1,2015-11-04T23:00:00Z,26.4645,-82.1044,1.0,6.17,1111122 
SCCF RECON,ioos:station:SCCF:56:1,2015-11-05T00:00:00Z,26.4645,-82.1044,1.0,5.83,1111122 
SCCF RECON,ioos:station:SCCF:56:1,2015-11-05T01:00:00Z,26.4645,-82.1044,1.0,5.65,1111122 
SCCF RECON,ioos:station:SCCF:56:1,2015-11-05T02:00:00Z,26.4645,-82.1044,1.0,5.13,1111122 
SCCF RECON,ioos:station:SCCF:56:1,2015-11-05T03:00:00Z,26.4645,-82.1044,1.0,4.9,1111122 
SCCF RECON,ioos:station:SCCF:56:1,2015-11-05T04:00:00Z,26.4645,-82.1044,1.0,5.23,1111122 
SCCF RECON,ioos:station:SCCF:56:1,2015-11-05T05:00:00Z,26.4645,-82.1044,1.0,4.64,1111122 
SCCF RECON,ioos:station:SCCF:56:1,2015-11-05T06:00:00Z,26.4645,-82.1044,1.0,4.63,1111122 
SCCF RECON,ioos:station:SCCF:56:1,2015-11-05T07:00:00Z,26.4645,-82.1044,1.0,4.04,1111122 
SCCF RECON,ioos:station:SCCF:56:1,2015-11-05T08:00:00Z,26.4645,-82.1044,1.0,3.6,1111122 
SCCF RECON,ioos:station:SCCF:56:1,2015-11-05T09:00:00Z,26.4645,-82.1044,1.0,3.42,1111122 
SCCF RECON,ioos:station:SCCF:56:1,2015-11-05T10:00:00Z,26.4645,-82.1044,1.0,3.38,1111122 
SCCF RECON,ioos:station:SCCF:56:1,2015-11-05T11:00:00Z,26.4645,-82.1044,1.0,3.2,1111122 
SCCF RECON,ioos:station:SCCF:56:1,2015-11-05T12:00:00Z,26.4645,-82.1044,1.0,4.41,1111122 
SCCF RECON,ioos:station:SCCF:56:1,2015-11-05T13:00:00Z,26.4645,-82.1044,1.0,4.29,1111122 
SCCF RECON,ioos:station:SCCF:56:1,2015-11-05T14:00:00Z,26.4645,-82.1044,1.0,4.22,1111122 
SCCF RECON,ioos:station:SCCF:56:1,2015-11-05T15:00:00Z,26.4645,-82.1044,1.0,4.03,1111122 
SCCF RECON,ioos:station:SCCF:56:1,2015-11-05T16:00:00Z,26.4645,-82.1044,1.0,4.49,1111122 
SCCF RECON,ioos:station:SCCF:56:1,2015-11-05T17:00:00Z,26.4645,-82.1044,1.0,4.47,1111122 
SCCF RECON,ioos:station:SCCF:56:1,2015-11-05T18:00:00Z,26.4645,-82.1044,1.0,4.39,1111122 
SCCF RECON,ioos:station:SCCF:56:1,2015-11-05T19:00:00Z,26.4645,-82.1044,1.0,4.38,1111122 
SCCF RECON,ioos:station:SCCF:56:1,2015-11-05T20:00:00Z,26.4645,-82.1044,1.0,5.35,1111122 
SCCF RECON,ioos:station:SCCF:56:1,2015-11-05T21:00:00Z,26.4645,-82.1044,1.0,5.59,1111122 
SCCF RECON,ioos:station:SCCF:56:1,2015-11-05T22:00:00Z,26.4645,-82.1044,1.0,6.08,1111122 
SCCF RECON,ioos:station:SCCF:56:1,2015-11-05T23:00:00Z,26.4645,-82.1044,1.0,5.65,1111122 
SCCF RECON,ioos:station:SCCF:56:1,2015-11-06T00:00:00Z,26.4645,-82.1044,1.0,5.37,1111122 
SCCF RECON,ioos:station:SCCF:56:1,2015-11-06T01:00:00Z,26.4645,-82.1044,1.0,5.6,1111122 
SCCF RECON,ioos:station:SCCF:56:1,2015-11-06T02:00:00Z,26.4645,-82.1044,1.0,5.31,1111122 
SCCF RECON,ioos:station:SCCF:56:1,2015-11-06T03:00:00Z,26.4645,-82.1044,1.0,4.83,1111122 
SCCF RECON,ioos:station:SCCF:56:1,2015-11-06T04:00:00Z,26.4645,-82.1044,1.0,4.62,1111122 
SCCF RECON,ioos:station:SCCF:56:1,2015-11-06T05:00:00Z,26.4645,-82.1044,1.0,5.16,1111122 
SCCF RECON,ioos:station:SCCF:56:1,2015-11-06T06:00:00Z,26.4645,-82.1044,1.0,4.44,1111122 
SCCF RECON,ioos:station:SCCF:56:1,2015-11-06T07:00:00Z,26.4645,-82.1044,1.0,3.58,1111122 
SCCF RECON,ioos:station:SCCF:56:1,2015-11-06T08:00:00Z,26.4645,-82.1044,1.0,3.33,1111122 
SCCF RECON,ioos:station:SCCF:56:1,2015-11-06T09:00:00Z,26.4645,-82.1044,1.0,3.21,1111122 
SCCF RECON,ioos:station:SCCF:56:1,2015-11-06T10:00:00Z,26.4645,-82.1044,1.0,3.17,1111122 
SCCF RECON,ioos:station:SCCF:56:1,2015-11-06T11:00:00Z,26.4645,-82.1044,1.0,4.52,1111122 
SCCF RECON,ioos:station:SCCF:56:1,2015-11-06T12:00:00Z,26.4645,-82.1044,1.0,4.37,1111122 
SCCF RECON,ioos:station:SCCF:56:1,2015-11-06T13:00:00Z,26.4645,-82.1044,1.0,4.42,1111122 
SCCF RECON,ioos:station:SCCF:56:1,2015-11-06T14:00:00Z,26.4645,-82.1044,1.0,4.9,1111122 
SCCF RECON,ioos:station:SCCF:56:1,2015-11-06T15:00:00Z,26.4645,-82.1044,1.0,5.34,1111122 
SCCF RECON,ioos:station:SCCF:56:1,2015-11-06T16:00:00Z,26.4645,-82.1044,1.0,5.34,1111122 
SCCF RECON,ioos:station:SCCF:56:1,2015-11-06T17:00:00Z,26.4645,-82.1044,1.0,4.97,1111122 
SCCF RECON,ioos:station:SCCF:56:1,2015-11-06T18:00:00Z,26.4645,-82.1044,1.0,5.4,1111122 
SCCF RECON,ioos:station:SCCF:56:1,2015-11-06T19:00:00Z,26.4645,-82.1044,1.0,4.67,1111122 
SCCF RECON,ioos:station:SCCF:56:1,2015-11-06T20:00:00Z,26.4645,-82.1044,1.0,5.21,1111122 
SCCF RECON,ioos:station:SCCF:56:1,2015-11-06T21:00:00Z,26.4645,-82.1044,1.0,4.89,1111122 
SCCF RECON,ioos:station:SCCF:56:1,2015-11-06T22:00:00Z,26.4645,-82.1044,1.0,5.3,1111122 
SCCF RECON,ioos:station:SCCF:56:1,2015-11-06T23:00:00Z,26.4645,-82.1044,1.0,8.62,1111122 
SCCF RECON,ioos:station:SCCF:56:1,2015-11-07T00:00:00Z,26.4645,-82.1044,1.0,7.35,1111122 
SCCF RECON,ioos:station:SCCF:56:1,2015-11-07T01:00:00Z,26.4645,-82.1044,1.0,6.48,1111122 
SCCF RECON,ioos:station:SCCF:56:1,2015-11-07T02:00:00Z,26.4645,-82.1044,1.0,5.87,1111122 
SCCF RECON,ioos:station:SCCF:56:1,2015-11-07T03:00:00Z,26.4645,-82.1044,1.0,5.76,1111122 
SCCF RECON,ioos:station:SCCF:56:1,2015-11-07T04:00:00Z,26.4645,-82.1044,1.0,5.5,1111122 
SCCF RECON,ioos:station:SCCF:56:1,2015-11-07T05:00:00Z,26.4645,-82.1044,1.0,5.25,1111122 
SCCF RECON,ioos:station:SCCF:56:1,2015-11-07T06:00:00Z,26.4645,-82.1044,1.0,4.72,1111122 
SCCF RECON,ioos:station:SCCF:56:1,2015-11-07T07:00:00Z,26.4645,-82.1044,1.0,4.41,1111122 
SCCF RECON,ioos:station:SCCF:56:1,2015-11-07T08:00:00Z,26.4645,-82.1044,1.0,3.69,1111122 
SCCF RECON,ioos:station:SCCF:56:1,2015-11-07T09:00:00Z,26.4645,-82.1044,1.0,3.24,1111122 
SCCF RECON,ioos:station:SCCF:56:1,2015-11-07T10:00:00Z,26.4645,-82.1044,1.0,2.92,1111122 
SCCF RECON,ioos:station:SCCF:56:1,2015-11-07T11:00:00Z,26.4645,-82.1044,1.0,2.94,1111122 
SCCF RECON,ioos:station:SCCF:56:1,2015-11-07T12:00:00Z,26.4645,-82.1044,1.0,4.4,1111122 
SCCF RECON,ioos:station:SCCF:56:1,2015-11-07T13:00:00Z,26.4645,-82.1044,1.0,4.4,1111122 
SCCF RECON,ioos:station:SCCF:56:1,2015-11-07T14:00:00Z,26.4645,-82.1044,1.0,5.33,1111122 
SCCF RECON,ioos:station:SCCF:56:1,2015-11-07T15:00:00Z,26.4645,-82.1044,1.0,6.17,1111122 
SCCF RECON,ioos:station:SCCF:56:1,2015-11-07T16:00:00Z,26.4645,-82.1044,1.0,6.39,1111122 
SCCF RECON,ioos:station:SCCF:56:1,2015-11-07T17:00:00Z,26.4645,-82.1044,1.0,6.05,1111122 
SCCF RECON,ioos:station:SCCF:56:1,2015-11-07T18:00:00Z,26.4645,-82.1044,1.0,6.13,1111122 
SCCF RECON,ioos:station:SCCF:56:1,2015-11-07T19:00:00Z,26.4645,-82.1044,1.0,6.14,1111122 
SCCF RECON,ioos:station:SCCF:56:1,2015-11-07T20:00:00Z,26.4645,-82.1044,1.0,5.68,1111122 
SCCF RECON,ioos:station:SCCF:56:1,2015-11-07T21:00:00Z,26.4645,-82.1044,1.0,5.81,1111122 
SCCF RECON,ioos:station:SCCF:56:1,2015-11-07T22:00:00Z,26.4645,-82.1044,1.0,5.61,1111122 
SCCF RECON,ioos:station:SCCF:56:1,2015-11-07T23:00:00Z,26.4645,-82.1044,1.0,6.03,1111122 
SCCF RECON,ioos:station:SCCF:56:1,2015-11-08T00:00:00Z,26.4645,-82.1044,1.0,7.6,1111122 
SCCF RECON,ioos:station:SCCF:56:1,2015-11-08T01:00:00Z,26.4645,-82.1044,1.0,7.28,1111122 
SCCF RECON,ioos:station:SCCF:56:1,2015-11-08T02:00:00Z,26.4645,-82.1044,1.0,6.48,1111122 
SCCF RECON,ioos:station:SCCF:56:1,2015-11-08T03:00:00Z,26.4645,-82.1044,1.0,6.0,1111122 
SCCF RECON,ioos:station:SCCF:56:1,2015-11-08T04:00:00Z,26.4645,-82.1044,1.0,5.44,1111122 
SCCF RECON,ioos:station:SCCF:56:1,2015-11-08T05:00:00Z,26.4645,-82.1044,1.0,5.35,1111122 
SCCF RECON,ioos:station:SCCF:56:1,2015-11-08T06:00:00Z,26.4645,-82.1044,1.0,5.3,1111122 
SCCF RECON,ioos:station:SCCF:56:1,2015-11-08T07:00:00Z,26.4645,-82.1044,1.0,5.08,1111122 
SCCF RECON,ioos:station:SCCF:56:1,2015-11-08T08:00:00Z,26.4645,-82.1044,1.0,4.24,1111122 
SCCF RECON,ioos:station:SCCF:56:1,2015-11-08T09:00:00Z,26.4645,-82.1044,1.0,3.7,1111122 
SCCF RECON,ioos:station:SCCF:56:1,2015-11-08T10:00:00Z,26.4645,-82.1044,1.0,3.28,1111122 
SCCF RECON,ioos:station:SCCF:56:1,2015-11-08T11:00:00Z,26.4645,-82.1044,1.0,2.91,1111122 
SCCF RECON,ioos:station:SCCF:56:1,2015-11-08T12:00:00Z,26.4645,-82.1044,1.0,3.54,1111122 
SCCF RECON,ioos:station:SCCF:56:1,2015-11-08T13:00:00Z,26.4645,-82.1044,1.0,4.1,1111122 
SCCF RECON,ioos:station:SCCF:56:1,2015-11-08T14:00:00Z,26.4645,-82.1044,1.0,4.78,1111122 
SCCF RECON,ioos:station:SCCF:56:1,2015-11-08T15:00:00Z,26.4645,-82.1044,1.0,6.15,1111122 
SCCF RECON,ioos:station:SCCF:56:1,2015-11-08T16:00:00Z,26.4645,-82.1044,1.0,7.4,1111122 
SCCF RECON,ioos:station:SCCF:56:1,2015-11-08T17:00:00Z,26.4645,-82.1044,1.0,7.72,1111122 
SCCF RECON,ioos:station:SCCF:56:1,2015-11-08T18:00:00Z,26.4645,-82.1044,1.0,6.99,1111122 
SCCF RECON,ioos:station:SCCF:56:1,2015-11-08T19:00:00Z,26.4645,-82.1044,1.0,7.08,1111122 
SCCF RECON,ioos:station:SCCF:56:1,2015-11-08T20:00:00Z,26.4645,-82.1044,1.0,7.51,1111122 
SCCF RECON,ioos:station:SCCF:56:1,2015-11-08T21:00:00Z,26.4645,-82.1044,1.0,7.06,1111122 
SCCF RECON,ioos:station:SCCF:56:1,2015-11-08T22:00:00Z,26.4645,-82.1044,1.0,6.03,1111122 
SCCF RECON,ioos:station:SCCF:56:1,2015-11-08T23:00:00Z,26.4645,-82.1044,1.0,6.27,1111122 
SCCF RECON,ioos:station:SCCF:56:1,2015-11-09T00:00:00Z,26.4645,-82.1044,1.0,6.4,1111122 
SCCF RECON,ioos:station:SCCF:56:1,2015-11-09T01:00:00Z,26.4645,-82.1044,1.0,6.65,1111122 
SCCF RECON,ioos:station:SCCF:56:1,2015-11-09T02:00:00Z,26.4645,-82.1044,1.0,6.34,1111122 
SCCF RECON,ioos:station:SCCF:56:1,2015-11-09T03:00:00Z,26.4645,-82.1044,1.0,6.27,1111122 
SCCF RECON,ioos:station:SCCF:56:1,2015-11-09T04:00:00Z,26.4645,-82.1044,1.0,6.34,1111122 
SCCF RECON,ioos:station:SCCF:56:1,2015-11-09T05:00:00Z,26.4645,-82.1044,1.0,6.0,1111122 
SCCF RECON,ioos:station:SCCF:56:1,2015-11-09T06:00:00Z,26.4645,-82.1044,1.0,5.53,1111122 
SCCF RECON,ioos:station:SCCF:56:1,2015-11-09T07:00:00Z,26.4645,-82.1044,1.0,4.87,1111122 
SCCF RECON,ioos:station:SCCF:56:1,2015-11-09T08:00:00Z,26.4645,-82.1044,1.0,4.21,1111122 
SCCF RECON,ioos:station:SCCF:56:1,2015-11-09T09:00:00Z,26.4645,-82.1044,1.0,3.75,1111122 
SCCF RECON,ioos:station:SCCF:56:1,2015-11-09T10:00:00Z,26.4645,-82.1044,1.0,3.21,1111122 
SCCF RECON,ioos:station:SCCF:56:1,2015-11-09T11:00:00Z,26.4645,-82.1044,1.0,2.77,1111122 
SCCF RECON,ioos:station:SCCF:56:1,2015-11-09T12:00:00Z,26.4645,-82.1044,1.0,2.3,1111122 
SCCF RECON,ioos:station:SCCF:56:1,2015-11-09T13:00:00Z,26.4645,-82.1044,1.0,2.33,1111122 
SCCF RECON,ioos:station:SCCF:56:1,2015-11-09T14:00:00Z,26.4645,-82.1044,1.0,4.22,1111122 
SCCF RECON,ioos:station:SCCF:56:1,2015-11-09T15:00:00Z,26.4645,-82.1044,1.0,6.0,1111122 
SCCF RECON,ioos:station:SCCF:56:1,2015-11-09T16:00:00Z,26.4645,-82.1044,1.0,7.13,1111122 
SCCF RECON,ioos:station:SCCF:56:1,2015-11-09T17:00:00Z,26.4645,-82.1044,1.0,7.58,1111122 
SCCF RECON,ioos:station:SCCF:56:1,2015-11-09T18:00:00Z,26.4645,-82.1044,1.0,6.21,1111122 
SCCF RECON,ioos:station:SCCF:56:1,2015-11-09T19:00:00Z,26.4645,-82.1044,1.0,6.68,1111122 
SCCF RECON,ioos:station:SCCF:56:1,2015-11-09T20:00:00Z,26.4645,-82.1044,1.0,7.15,1111122 
SCCF RECON,ioos:station:SCCF:56:1,2015-11-09T21:00:00Z,26.4645,-82.1044,1.0,6.86,1111122 
SCCF RECON,ioos:station:SCCF:56:1,2015-11-09T22:00:00Z,26.4645,-82.1044,1.0,6.56,1111122 
SCCF RECON,ioos:station:SCCF:56:1,2015-11-09T23:00:00Z,26.4645,-82.1044,1.0,6.02,1111122 
SCCF RECON,ioos:station:SCCF:56:1,2015-11-10T00:00:00Z,26.4645,-82.1044,1.0,6.04,1111122 
SCCF RECON,ioos:station:SCCF:56:1,2015-11-10T01:00:00Z,26.4645,-82.1044,1.0,6.34,1111122 
SCCF RECON,ioos:station:SCCF:56:1,2015-11-10T02:00:00Z,26.4645,-82.1044,1.0,6.55,1111122 
SCCF RECON,ioos:station:SCCF:56:1,2015-11-10T03:00:00Z,26.4645,-82.1044,1.0,6.38,1111122 
SCCF RECON,ioos:station:SCCF:56:1,2015-11-10T04:00:00Z,26.4645,-82.1044,1.0,6.35,1111122 
SCCF RECON,ioos:station:SCCF:56:1,2015-11-10T05:00:00Z,26.4645,-82.1044,1.0,6.29,1111122 
SCCF RECON,ioos:station:SCCF:56:1,2015-11-10T06:00:00Z,26.4645,-82.1044,1.0,5.64,1111122 
SCCF RECON,ioos:station:SCCF:56:1,2015-11-10T07:00:00Z,26.4645,-82.1044,1.0,5.0,1111122 
SCCF RECON,ioos:station:SCCF:56:1,2015-11-10T08:00:00Z,26.4645,-82.1044,1.0,4.43,1111122 
SCCF RECON,ioos:station:SCCF:56:1,2015-11-10T09:00:00Z,26.4645,-82.1044,1.0,3.72,1111122 
SCCF RECON,ioos:station:SCCF:56:1,2015-11-10T10:00:00Z,26.4645,-82.1044,1.0,3.11,1111122 
SCCF RECON,ioos:station:SCCF:56:1,2015-11-10T11:00:00Z,26.4645,-82.1044,1.0,2.8,1111122 
SCCF RECON,ioos:station:SCCF:56:1,2015-11-10T12:00:00Z,26.4645,-82.1044,1.0,2.43,1111122 
SCCF RECON,ioos:station:SCCF:56:1,2015-11-10T13:00:00Z,26.4645,-82.1044,1.0,2.23,1111122 
SCCF RECON,ioos:station:SCCF:56:1,2015-11-10T14:00:00Z,26.4645,-82.1044,1.0,2.5,1111122 
SCCF RECON,ioos:station:SCCF:56:1,2015-11-10T15:00:00Z,26.4645,-82.1044,1.0,3.65,1111122 
SCCF RECON,ioos:station:SCCF:56:1,2015-11-10T16:00:00Z,26.4645,-82.1044,1.0,5.26,1111122 
SCCF RECON,ioos:station:SCCF:56:1,2015-11-10T17:00:00Z,26.4645,-82.1044,1.0,6.18,1111122 
SCCF RECON,ioos:station:SCCF:56:1,2015-11-10T18:00:00Z,26.4645,-82.1044,1.0,6.57,1111122 
SCCF RECON,ioos:station:SCCF:56:1,2015-11-10T19:00:00Z,26.4645,-82.1044,1.0,6.25,1111122 
SCCF RECON,ioos:station:SCCF:56:1,2015-11-10T20:00:00Z,26.4645,-82.1044,1.0,5.69,1111122 
SCCF RECON,ioos:station:SCCF:56:1,2015-11-10T21:00:00Z,26.4645,-82.1044,1.0,5.63,1111122 
SCCF RECON,ioos:station:SCCF:56:1,2015-11-10T22:00:00Z,26.4645,-82.1044,1.0,5.32,1111122 
SCCF RECON,ioos:station:SCCF:56:1,2015-11-10T23:00:00Z,26.4645,-82.1044,1.0,5.18,1111122 
SCCF RECON,ioos:station:SCCF:56:1,2015-11-11T00:00:00Z,26.4645,-82.1044,1.0,4.71,1111122 
SCCF RECON,ioos:station:SCCF:56:1,2015-11-11T01:00:00Z,26.4645,-82.1044,1.0,5.38,1111122 
SCCF RECON,ioos:station:SCCF:56:1,2015-11-11T02:00:00Z,26.4645,-82.1044,1.0,4.32,1111122 
SCCF RECON,ioos:station:SCCF:56:1,2015-11-11T03:00:00Z,26.4645,-82.1044,1.0,5.07,1111122 
SCCF RECON,ioos:station:SCCF:56:1,2015-11-11T04:00:00Z,26.4645,-82.1044,1.0,4.21,1111122 
SCCF RECON,ioos:station:SCCF:56:1,2015-11-11T05:00:00Z,26.4645,-82.1044,1.0,4.2,1111122 
SCCF RECON,ioos:station:SCCF:56:1,2015-11-11T06:00:00Z,26.4645,-82.1044,1.0,4.73,1111122 
SCCF RECON,ioos:station:SCCF:56:1,2015-11-11T07:00:00Z,26.4645,-82.1044,1.0,4.39,1111122 
SCCF RECON,ioos:station:SCCF:56:1,2015-11-11T08:00:00Z,26.4645,-82.1044,1.0,3.92,1111122 
SCCF RECON,ioos:station:SCCF:56:1,2015-11-11T09:00:00Z,26.4645,-82.1044,1.0,3.07,1111122 
SCCF RECON,ioos:station:SCCF:56:1,2015-11-11T10:00:00Z,26.4645,-82.1044,1.0,2.63,1111122 
SCCF RECON,ioos:station:SCCF:56:1,2015-11-11T11:00:00Z,26.4645,-82.1044,1.0,2.27,1111122 
SCCF RECON,ioos:station:SCCF:56:1,2015-11-11T12:00:00Z,26.4645,-82.1044,1.0,1.99,1111122 
SCCF RECON,ioos:station:SCCF:56:1,2015-11-11T13:00:00Z,26.4645,-82.1044,1.0,1.61,1111122 
SCCF RECON,ioos:station:SCCF:56:1,2015-11-11T14:00:00Z,26.4645,-82.1044,1.0,2.32,1111122 
SCCF RECON,ioos:station:SCCF:56:1,2015-11-11T15:00:00Z,26.4645,-82.1044,1.0,4.28,1111122 
SCCF RECON,ioos:station:SCCF:56:1,2015-11-11T16:00:00Z,26.4645,-82.1044,1.0,5.59,1111122 
SCCF RECON,ioos:station:SCCF:56:1,2015-11-11T17:00:00Z,26.4645,-82.1044,1.0,6.58,1111122 
SCCF RECON,ioos:station:SCCF:56:1,2015-11-11T18:00:00Z,26.4645,-82.1044,1.0,6.6,1111122 
SCCF RECON,ioos:station:SCCF:56:1,2015-11-11T19:00:00Z,26.4645,-82.1044,1.0,6.21,1111122 
SCCF RECON,ioos:station:SCCF:56:1,2015-11-11T20:00:00Z,26.4645,-82.1044,1.0,6.2,1111122 
SCCF RECON,ioos:station:SCCF:56:1,2015-11-11T21:00:00Z,26.4645,-82.1044,1.0,5.81,1111122 
SCCF RECON,ioos:station:SCCF:56:1,2015-11-11T22:00:00Z,26.4645,-82.1044,1.0,5.9,1111122 
SCCF RECON,ioos:station:SCCF:56:1,2015-11-11T23:00:00Z,26.4645,-82.1044,1.0,5.78,1111122 
SCCF RECON,ioos:station:SCCF:56:1,2015-11-12T00:00:00Z,26.4645,-82.1044,1.0,5.42,1111122 